Miscellaneous Local Product
Issued by NWS North Platte, NE

Home | Current Version | Previous Version | Text Only | Print | Product List | Glossary On
Versions: 1 2 3 4 5 6 7 8 9 10 11 12 13 14 15 16 17 18 19 20 21 22 23 24 25 26 27 28 29 30 31 32 33 34 35 36 37 38 39 40 41 42 43 44 45 46 47 48 49 50
000
AXUS43 KLBF 250710
MISLBF


WESTERN AND NORTH CENTRAL NEBRASKA HOURLY WEATHER ROUNDUP
NATIONAL WEATHER SERVICE NORTH PLATTE NE
200 AM CDT FRI JUL 25 2014

***STATIONS NOT REPORTING VARIABLES SUCH AS SKY/WEATHER OR
PRESSURE ARE PROVIDED BY THE NEBRASKA DEPARTMENT OF
ROADS...RAWS...AND APRS NETWORKS...AND ARE NOT UNDER
NATIONAL WEATHER SERVICE QUALITY CONTROL***

...OBSERVATIONS IN AND NEAR THE EASTERN PANHANDLE OF NEBRASKA...

CITY           SKY/WX    TMP DP  RH WIND       PRES   REMARKS
PINE RIDGE     CLEAR     76  55  48 SW8G21    29.77S
CHADRON        CLEAR     77  54  44 SW8       29.77R
ALLIANCE       CLEAR     73  54  51 SW13      29.87S
SIDNEY         CLEAR     72  55  55 SW12      29.96F
WHITECLAY        N/A     78  54  43 S18         N/A
RUSHVILLE        N/A     68  59  73 SW13        N/A
GORDON           N/A     78  57  48 S15         N/A
CRESCENT LAKE    N/A     73  52  47 S7G15       N/A
LISCO            N/A     81  52  36 W7          N/A
BIG SPRINGS      N/A     70  60  70 W3          N/A
$$

...OBSERVATIONS IN NORTH CENTRAL NEBRASKA...

CITY           SKY/WX    TMP DP  RH WIND       PRES   REMARKS
VALENTINE      CLEAR     74  59  59 S9        29.76R
THEDFORD       MOCLDY    72  64  75 SE5       29.82F
AINSWORTH      PTCLDY    69  66  89 S13       29.77F
O`NEILL        MOCLDY    75  64  69 S15       29.76F
ORD            CLOUDY    73  67  81 SE10      29.80F
BROKEN BOW     CLOUDY    81  70  69 SE8       29.82F
BROWNLEE         N/A     74  65  74 S17         N/A
SPRINGVIEW       N/A     73  66  80 CALM        N/A
DUNNING          N/A     75  73  96 S3          N/A
ROSE             N/A     77  76  96 E14         N/A
NEWPORT          N/A     76  72  85 S18         N/A
SARGENT          N/A     74  69  83 CALM        N/A
COMSTOCK         N/A     79  74  83 S15         N/A
CHAMBERS         N/A     73  69  88 S7          N/A
$$

...OBSERVATIONS IN SOUTHWEST NEBRASKA AND FAR NORTHEAST COLORADO...

CITY           SKY/WX    TMP DP  RH WIND       PRES   REMARKS
WRAY             N/A     68  57  69 SW5       29.90F
HOLYOKE        FAIR      68  59  73 W7        29.91S
IMPERIAL       PTCLDY    72  58  61 W12       29.86F
OGALLALA       CLEAR     61  58  88 W5        29.88R
NORTH PLATTE   MOCLDY    76  59  55 NE7       29.81F
MCCOOK         PTCLDY    80  57  45 S13       29.82F
LEXINGTON      CLOUDY    82  71  69 E9        29.84R
PAXTON           N/A     74  59  59 CALM        N/A
SUTHERLAND       N/A     77  66  69 W3          N/A
BRADY            N/A     80  68  67 N3          N/A
GOTHENBURG       N/A     84  65  52 SE6         N/A
CALLAWAY         N/A     74  70  88 SE8         N/A
$$

...SOME WEATHER OBSERVATIONS FROM AROUND THE REGION...

CITY           SKY/WX    TMP DP  RH WIND       PRES   REMARKS
DENVER         MOCLDY    74  50  42 SW15      30.07F
LARAMIE        MOCLDY    62  48  60 SW9       30.22F
CHEYENNE       CLEAR     71  51  49 SW14G23   30.12S
SCOTTSBLUFF    CLEAR     80  53  39 SW10      29.90S
RAPID CITY     CLEAR     72  59  63 N18       29.82R
PIERRE         PTCLDY    72  67  84 SE8       29.67S
WINNER         FAIR      78  61  55 W17G23    29.73R
SIOUX FALLS    MOCLDY    68  61  78 S12       29.71F
OMAHA          CLOUDY    75  60  59 W10G17    29.93R
GRAND ISLAND   CLOUDY    76  68  76 SE10      29.86F
KANSAS CITY    PTCLDY    71  58  63 S13       29.94F
WICHITA        PTCLDY    78  71  79 S14       29.95S
HAYS           PTCLDY    61  61 100 S16       29.88S
LIBERAL        CLEAR     81  61  50 S16       30.00S
GOODLAND       CLOUDY    76  56  49 S8        29.92F
$$



USA.gov is the U.S. government's official web portal to all federal, state and local government web resources and services.